When you browse on this site, cookies collect data to enhance your experience and personalize the content and advertising you see.
Visit our Privacy Policy to learn more. By continuing to use the site, you agree to this use of cookies and data.
  • In Austria
  • List of Countries
  • For 7 days
  • Water Temperature
  • Weather Map
  • News
  • Weather Widgets
  • user-avatar
    Login

    Hourly Weather Sharan

    Today, 20 January, Monday

    Time Temperature Precipitation Wind Pressure Humidity
    00:00 -8°C° 0 mm 0 mps 581 mmHg 76%
    01:00 -8°C° 0 mm 0 mps 581 mmHg 75%
    02:00 -9°C° 0 mm 0 mps 581 mmHg 74%
    03:00 -9°C° 0 mm 0 mps 580 mmHg 74%
    04:00 -9°C° 0 mm 0 mps 580 mmHg 74%
    05:00 -9°C° 0 mm 1 mps 580 mmHg 74%
    06:00 -10°C° 0 mm 1 mps 580 mmHg 74%
    07:00 -10°C° 0 mm 1 mps 580 mmHg 75%
    08:00 -10°C° 0 mm 1 mps 580 mmHg 75%
    09:00 -8°C° 0 mm 1 mps 581 mmHg 75%
    10:00 -7°C° 0 mm 1 mps 581 mmHg 75%
    11:00 -4°C° 0 mm 1 mps 582 mmHg 75%
    12:00 -3°C° 0 mm 1 mps 582 mmHg 76%
    13:00 -3°C° 0 mm 1 mps 581 mmHg 76%
    14:00 -2°C° 0 mm 1 mps 581 mmHg 76%
    15:00 -2°C° 0.2 mm 1 mps 581 mmHg 82%
    16:00 -2°C° 0.2 mm 1 mps 581 mmHg 88%
    17:00 -3°C° 0.2 mm 1 mps 580 mmHg 95%
    18:00 -3°C° 0.7 mm 1 mps 581 mmHg 95%
    19:00 -3°C° 0.7 mm 1 mps 581 mmHg 95%
    20:00 -3°C° 0.7 mm 1 mps 582 mmHg 95%
    21:00 -3°C° 0.3 mm 1 mps 581 mmHg 95%
    22:00 -4°C° 0.3 mm 1 mps 581 mmHg 96%
    23:00 -5°C° 0.3 mm 0 mps 581 mmHg 96%

    Tomorrow, 21 January, Tuesday

    Time Temperature Precipitation Wind Pressure Humidity
    00:00 -4°C° 0.2 mm 1 mps 581 mmHg 96%
    01:00 -4°C° 0.2 mm 1 mps 581 mmHg 96%
    02:00 -4°C° 0.2 mm 1 mps 581 mmHg 96%
    03:00 -6°C° 0.2 mm 1 mps 581 mmHg 96%
    04:00 -6°C° 0.2 mm 1 mps 581 mmHg 96%
    05:00 -6°C° 0.2 mm 1 mps 581 mmHg 96%
    06:00 -6°C° 0.1 mm 1 mps 581 mmHg 95%
    07:00 -7°C° 0.1 mm 1 mps 581 mmHg 95%
    08:00 -7°C° 0.1 mm 1 mps 581 mmHg 95%
    09:00 -6°C° 0 mm 1 mps 582 mmHg 94%
    10:00 -4°C° 0 mm 1 mps 583 mmHg 92%
    11:00 -4°C° 0 mm 0 mps 583 mmHg 91%
    12:00 -3°C° 0 mm 0 mps 583 mmHg 90%
    13:00 -3°C° 0 mm 0 mps 583 mmHg 89%
    14:00 -2°C° 0 mm 0 mps 583 mmHg 88%
    15:00 -2°C° 0 mm 1 mps 582 mmHg 90%
    16:00 -4°C° 0 mm 1 mps 582 mmHg 92%
    17:00 -6°C° 0 mm 1 mps 581 mmHg 94%
    18:00 -6°C° 0 mm 1 mps 581 mmHg 94%
    19:00 -7°C° 0 mm 1 mps 582 mmHg 94%
    20:00 -8°C° 0 mm 1 mps 582 mmHg 94%
    21:00 -8°C° 0.1 mm 1 mps 583 mmHg 95%
    22:00 -7°C° 0.1 mm 1 mps 583 mmHg 95%
    23:00 -7°C° 0.1 mm 1 mps 584 mmHg 96%

    Day after tomorrow, 22 January, Wednesday

    Time Temperature Precipitation Wind Pressure Humidity
    00:00 -7°C° 0.1 mm 1 mps 584 mmHg 96%
    01:00 -7°C° 0.1 mm 1 mps 584 mmHg 96%
    02:00 -7°C° 0.1 mm 0 mps 585 mmHg 96%
    03:00 -7°C° 0 mm 1 mps 585 mmHg 96%
    04:00 -7°C° 0 mm 1 mps 584 mmHg 96%
    05:00 -8°C° 0 mm 1 mps 584 mmHg 96%
    06:00 -8°C° 0 mm 1 mps 584 mmHg 95%
    07:00 -9°C° 0 mm 1 mps 585 mmHg 95%
    08:00 -10°C° 0 mm 1 mps 585 mmHg 95%
    09:00 -8°C° 0 mm 1 mps 585 mmHg 93%
    10:00 -7°C° 0 mm 1 mps 585 mmHg 91%
    11:00 -6°C° 0 mm 1 mps 586 mmHg 89%
    12:00 -6°C° 0 mm 1 mps 585 mmHg 88%
    13:00 -4°C° 0 mm 1 mps 585 mmHg 86%
    14:00 -4°C° 0 mm 0 mps 584 mmHg 84%
    15:00 -6°C° 0 mm 0 mps 583 mmHg 84%
    16:00 -7°C° 0 mm 0 mps 583 mmHg 84%
    17:00 -8°C° 0 mm 0 mps 582 mmHg 84%
    18:00 -9°C° 0 mm 0 mps 582 mmHg 83%
    19:00 -10°C° 0 mm 0 mps 583 mmHg 81%
    20:00 -11°C° 0 mm 0 mps 583 mmHg 80%
    21:00 -11°C° 0 mm 0 mps 583 mmHg 80%
    22:00 -11°C° 0 mm 0 mps 583 mmHg 81%
    23:00 -11°C° 0 mm 1 mps 583 mmHg 81%

    23 January, Thursday

    Time Temperature Precipitation Wind Pressure Humidity
    00:00 -12°C° 0 mm 1 mps 583 mmHg 80%
    01:00 -12°C° 0 mm 1 mps 583 mmHg 80%
    02:00 -12°C° 0 mm 1 mps 583 mmHg 79%
    03:00 -12°C° 0 mm 1 mps 583 mmHg 79%
    04:00 -12°C° 0 mm 1 mps 582 mmHg 79%
    05:00 -12°C° 0 mm 1 mps 582 mmHg 79%
    06:00 -12°C° 0 mm 1 mps 582 mmHg 78%
    07:00 -12°C° 0 mm 1 mps 583 mmHg 76%
    08:00 -12°C° 0 mm 1 mps 583 mmHg 75%
    09:00 -10°C° 0 mm 1 mps 584 mmHg 74%
    10:00 -8°C° 0 mm 1 mps 584 mmHg 73%
    11:00 -6°C° 0 mm 1 mps 585 mmHg 71%
    12:00 -6°C° 0 mm 1 mps 584 mmHg 70%
    13:00 -5°C° 0 mm 0 mps 584 mmHg 69%
    14:00 -4°C° 0 mm 0 mps 583 mmHg 68%
    15:00 -5°C° 0 mm 0 mps 583 mmHg 68%
    16:00 -7°C° 0 mm 1 mps 582 mmHg 68%
    17:00 -8°C° 0 mm 1 mps 581 mmHg 69%
    18:00 -8°C° 0 mm 1 mps 582 mmHg 67%
    19:00 -9°C° 0 mm 1 mps 582 mmHg 65%
    20:00 -9°C° 0 mm 1 mps 582 mmHg 63%
    21:00 -10°C° 0 mm 1 mps 582 mmHg 62%
    22:00 -10°C° 0 mm 1 mps 582 mmHg 61%
    23:00 -10°C° 0 mm 1 mps 582 mmHg 60%

    24 January, Friday

    Time Temperature Precipitation Wind Pressure Humidity
    00:00 -10°C° 0 mm 1 mps 582 mmHg 59%
    01:00 -10°C° 0 mm 1 mps 581 mmHg 59%
    02:00 -10°C° 0 mm 1 mps 581 mmHg 58%
    03:00 -10°C° 0 mm 1 mps 581 mmHg 58%
    04:00 -10°C° 0 mm 1 mps 581 mmHg 57%
    05:00 -10°C° 0 mm 1 mps 581 mmHg 57%
    06:00 -9°C° 0 mm 1 mps 581 mmHg 58%
    07:00 -9°C° 0 mm 1 mps 581 mmHg 60%
    08:00 -8°C° 0 mm 1 mps 581 mmHg 61%
    09:00 -6°C° 0 mm 1 mps 582 mmHg 62%
    10:00 -5°C° 0 mm 0 mps 583 mmHg 64%
    11:00 -3°C° 0 mm 0 mps 583 mmHg 65%
    12:00 -2°C° 0 mm 0 mps 583 mmHg 69%
    13:00 0°C° 0 mm 1 mps 583 mmHg 72%
    14:00 +1°C° 0 mm 1 mps 582 mmHg 75%
    15:00 0°C° 0 mm 1 mps 582 mmHg 79%
    16:00 -1°C° 0 mm 1 mps 581 mmHg 83%
    17:00 -1°C° 0 mm 1 mps 581 mmHg 86%
    18:00 -2°C° 0 mm 1 mps 581 mmHg 89%
    19:00 -3°C° 0 mm 1 mps 581 mmHg 91%
    20:00 -4°C° 0 mm 1 mps 581 mmHg 93%
    21:00 -4°C° 0 mm 1 mps 581 mmHg 94%
    22:00 -3°C° 0 mm 1 mps 581 mmHg 94%
    23:00 -3°C° 0 mm 1 mps 582 mmHg 95%

    25 January, Saturday

    Time Temperature Precipitation Wind Pressure Humidity
    00:00 -4°C° 0 mm 1 mps 582 mmHg 95%
    01:00 -4°C° 0 mm 1 mps 582 mmHg 95%
    02:00 -4°C° 0 mm 1 mps 581 mmHg 96%
    03:00 -6°C° 0 mm 1 mps 581 mmHg 96%
    04:00 -8°C° 0 mm 1 mps 580 mmHg 96%
    05:00 -9°C° 0 mm 1 mps 580 mmHg 97%
    06:00 -9°C° 0 mm 1 mps 580 mmHg 96%
    07:00 -9°C° 0 mm 1 mps 580 mmHg 96%
    08:00 -9°C° 0 mm 1 mps 580 mmHg 96%
    09:00 -8°C° 0 mm 1 mps 581 mmHg 94%
    10:00 -6°C° 0 mm 1 mps 581 mmHg 91%
    11:00 -4°C° 0 mm 1 mps 582 mmHg 89%
    12:00 -3°C° 0 mm 1 mps 581 mmHg 87%
    13:00 -2°C° 0 mm 1 mps 581 mmHg 84%
    14:00 -2°C° 0 mm 0 mps 581 mmHg 82%
    15:00 -4°C° 0 mm 0 mps 580 mmHg 82%
    16:00 -5°C° 0 mm 0 mps 579 mmHg 82%
    17:00 -6°C° 0 mm 0 mps 579 mmHg 81%
    18:00 -7°C° 0 mm 0 mps 579 mmHg 81%
    19:00 -8°C° 0 mm 0 mps 579 mmHg 81%
    20:00 -9°C° 0 mm 0 mps 579 mmHg 80%
    21:00 -9°C° 0 mm 0 mps 579 mmHg 80%
    22:00 -10°C° 0 mm 0 mps 579 mmHg 80%
    23:00 -10°C° 0 mm 0 mps 579 mmHg 80%
    Show more